Regional Weather Roundup
Issued by NWS Little Rock, AR

Home | Current Version | Previous Version | Graphics & Text | Print | Product List | Glossary On
Versions: 1 2 3 4 5 6 7 8 9 10 11 12 13 14 15 16 17 18 19 20 21 22 23 24 25 26 27 28 29 30 31 32 33 34 35 36 37 38 39 40 41 42 43 44 45 46 47 48 49 50
000
ASUS44 KLZK 062005
RWRLZK

WEATHER ROUNDUP FOR ARKANSAS
NATIONAL WEATHER SERVICE LITTLE ROCK AR
300 PM CDT WED MAY 06 2015

NOTE: "FAIR" INDICATES FEW OR NO CLOUDS BELOW 12,000 FEET WITH NO
SIGNIFICANT WEATHER AND/OR OBSTRUCTIONS TO VISIBILITY.

ARZ001-003-010-029-062100-
NORTHWEST ARKANSAS

CITY           SKY/WX    TMP DP  RH WIND       PRES   REMARKS
FAYETTEVILLE   SUNNY     76  66  71 SE16G26   30.01F
FORT SMITH     MOSUNNY   81  54  39 SE10G20   29.98F
HARRISON       PTSUNNY   74  60  61 SE9       30.04F
BENTONVILLE    MOSUNNY   79  57  47 SE18G24   30.01F
ROGERS         SUNNY     77  56  48 S22G31    30.01S
SILOAM SPGS    SUNNY     79  55  44 S18G24    30.00F
SPRINGDALE     MOSUNNY   77  57  50 S15G26    30.04S
$$

ARZ004-005-016-062100-
NORTH CENTRAL ARKANSAS

CITY           SKY/WX    TMP DP  RH WIND       PRES   REMARKS
BATESVILLE     CLOUDY    81  55  41 S9        30.06F
FLIPPIN        PTSUNNY   79  55  44 S6        30.03S
MTN HOME       PTSUNNY   79  54  41 S9        30.04F
$$

ARZ040-041-062100-
WEST CENTRAL ARKANSAS

CITY           SKY/WX    TMP DP  RH WIND       PRES   REMARKS
MENA           CLOUDY    81  54  39 SE7       30.02S
MOUNT IDA      MOSUNNY   80  57  45 VRB7      30.00F
$$

ARZ009-017-025-026-028-062100-
NORTHEAST ARKANSAS

CITY           SKY/WX    TMP DP  RH WIND       PRES   REMARKS
CORNING        LGT RAIN  84  50  30 S18G24    30.06F
JONESBORO      MOSUNNY   84  51  31 SE14      30.06F
NEWPORT        MOSUNNY   84  52  33 SE10G18   30.06F
WALNUT RIDGE   MOSUNNY   84  52  32 S15G24    30.05F
BLYTHEVILLE    MOSUNNY   84  53  34 SE12      30.08F
$$

ARZ022-023-033-042-044-062100-
CENTRAL ARKANSAS

CITY           SKY/WX    TMP DP  RH WIND       PRES   REMARKS
LITTLE ROCK    PTSUNNY   84  54  35 S16G22    30.04F
N LITTLE ROCK  PTSUNNY   81  59  47 S10G20    30.04F
JACKSONVILLE   MOSUNNY   85  58  40 SE10      30.04F
SEARCY         PTSUNNY   82  57  42 S12       30.06F
HOT SPRINGS    PTSUNNY   80  58  46 SE8       30.03F
RUSSELLVILLE   MOSUNNY   83  57  41 SE10G20   30.01F
CLINTON        FAIR      81  59  47 S8        30.05F
$$

ARZ036-062100-
EAST ARKANSAS

CITY           SKY/WX    TMP DP  RH WIND       PRES   REMARKS
WEST MEMPHIS   MOSUNNY   83  54  36 SE12      30.06F
$$

ARZ050-053-066-070-073-062100-
SOUTHWEST ARKANSAS

CITY           SKY/WX    TMP DP  RH WIND       PRES   REMARKS
ARKADELPHIA    FAIR      82  61  49 VRB6      30.02F
CAMDEN         MOSUNNY   82  57  42 NE13G18   30.02F
TEXARKANA      CLOUDY    80  62  54 S14G20    30.01F
EL DORADO      MOSUNNY   83  59  44 SE9G20    30.03F
DE QUEEN       CLOUDY    80  62  54 VRB5G16   29.98F
$$

ARZ056-057-069-062100-
SOUTHEAST ARKANSAS

CITY           SKY/WX    TMP DP  RH WIND       PRES   REMARKS
PINE BLUFF     SUNNY     82  56  40 SE15      30.04F
STUTTGART      MOSUNNY   84  55  37 SE15      30.06F
MONTICELLO     SUNNY     84  55  36 S8        30.04F

$$





USA.gov is the U.S. government's official web portal to all federal, state and local government web resources and services.